sat.trackr.live / text

‹ back to catalog

ARABSAT-5A

NORAD 36745 · 2010-032B

PAYLOAD ACTIVE UNKNOWN

§ Identity

Operator
Country
AB
Launch date
2010-06-26
Launch site
FRGUI
Launch vehicle
Mass (kg)
RCS (m²)
11.14

Purposes: comms

External: N2YO · Heavens-Above · Gunter

§ Orbital elements

Epoch: 2026-09-20T03:22:49.774368Z

Period
1,436.08 min
Inclination
0.2767°
Eccentricity
0.0004018
Mean motion
1.00273203 rev/d
Perigee alt
35,769.3 km
Apogee alt
35,803.1 km
Semi-major
42,164.3 km
B*
0.0000e+0
RAAN
77.2019°
Arg perigee
98.8649°
Mean anomaly
264.1784°
Rev number
5,959

§ Raw data

ARABSAT-5A1 36745U 10032B   26263.14085387  .00000149  00000+0  00000+0 0  99982 36745   0.2767  77.2019 0004018  98.8649 264.1784  1.00273203 59590

JSON: /api/v1/satellites/36745 · /tle

For live sub-satellite position, see the globe view (requires WebGL).

§ Visibility from observer

Set your observer location to see the next 7 days of passes ≥ 10°. The values pass through the URL so the page stays shareable.

No JS? Fill the form by hand. The geolocation button needs JavaScript.